Вернуться в каталог

STARLINK-37658

АктивенСвязьSSO
NORAD 69138·PAYLOAD·🇺🇸 United States

Запущен May 20, 2026 с Vandenberg Space Force Base

Loading…

Ближайшие Пролёты (ближайшие 24 часа)

TLE

СвежийSource: CelesTrak SupGP

Эпоха: Sep 14, 2026, 23:15 UTC

1 69138C 26110Q   26257.96923611  .00076216  00000+0  23664-2 0  2577
2 69138  97.2848  93.1218 0001723  93.9209 125.1490 15.33393806    10

Отслеживайте STARLINK-37658 в реальном времени с AllMySat

Download on the App Store